| time (UTC) | temp C | wind direction | speed KPH | gust KPH | rain 1hr cm | rain 24hr cm | rain mn cm | humidity % | barometer mb |
| 20260903035920 | 26 | 145 | 3.2 | 16.1 | 0.00 | 0.00 | 0.00 | 45 | 1018.0 |
| 20260903035418 | 26 | 107 | 1.6 | 16.1 | 0.00 | 0.00 | 0.00 | 45 | 1018.3 |
| 20260903034636 | 26 | 174 | 8.0 | 16.1 | 0.00 | 0.00 | 0.00 | 44 | 1018.3 |
| 20260903034126 | 26 | 123 | 0.0 | 16.1 | 0.00 | 0.00 | 0.00 | 44 | 1018.3 |
| 20260903033626 | 26 | 141 | 0.0 | 16.1 | 0.00 | 0.00 | 0.00 | 44 | 1018.3 |
| 20260903033114 | 26 | 118 | 8.0 | 14.5 | 0.00 | 0.00 | 0.00 | 44 | 1018.3 |
| 20260903032614 | 26 | 121 | 0.0 | 14.5 | 0.00 | 0.00 | 0.00 | 44 | 1018.3 |
| 20260903032114 | 27 | 138 | 6.4 | 14.5 | 0.00 | 0.00 | 0.00 | 44 | 1018.3 |
| 20260903031603 | 27 | 151 | 0.0 | 12.9 | 0.00 | 0.00 | 0.00 | 45 | 1018.3 |
| 20260903031545 | 27 | 123 | 3.2 | 12.9 | 0.00 | 0.00 | 0.00 | 44 | 1018.3 |
| 20260903030549 | 27 | 153 | 6.4 | 14.5 | 0.00 | 0.00 | 0.00 | 44 | 1018.3 |
| 20260903030044 | 27 | 161 | 9.7 | 14.5 | 0.00 | 0.00 | 0.00 | 44 | 1018.3 |
| 20260903030027 | 27 | 171 | 3.2 | 14.5 | 0.00 | 0.00 | 0.00 | 43 | 1018.0 |
| 20260903025037 | 27 | 131 | 0.0 | 14.5 | 0.00 | 0.00 | 0.00 | 42 | 1018.0 |
| 20260903024755 | 28 | 131 | 1.6 | 14.5 | 0.00 | 0.00 | 0.00 | 42 | 1017.7 |
| 20260903024028 | 28 | 119 | 3.2 | 14.5 | 0.00 | 0.00 | 0.00 | 41 | 1018.0 |
| 20260903023511 | 28 | 131 | 1.6 | 20.9 | 0.00 | 0.00 | 0.00 | 40 | 1017.7 |
| 20260903023457 | 28 | 142 | 0.0 | 20.9 | 0.00 | 0.00 | 0.00 | 40 | 1017.3 |
| 20260903022506 | 28 | 124 | 6.4 | 17.7 | 0.00 | 0.00 | 0.00 | 39 | 1017.7 |
| 20260903022229 | 29 | 134 | 4.8 | 16.1 | 0.00 | 0.00 | 0.00 | 38 | 1017.3 |
| 20260903021457 | 29 | 119 | 9.7 | 16.1 | 0.00 | 0.00 | 0.00 | 37 | 1017.3 |
| 20260903021433 | 29 | 108 | 4.8 | 11.3 | 0.00 | 0.00 | 0.00 | 37 | 1017.3 |
| 20260903020450 | 30 | 99 | 3.2 | 11.3 | 0.00 | 0.00 | 0.00 | 36 | 1017.3 |
| 20260903015946 | 30 | 122 | 4.8 | 11.3 | 0.00 | 0.00 | 0.00 | 36 | 1017.3 |
| 20260903015658 | 30 | 154 | 1.6 | 11.3 | 0.00 | 0.00 | 0.00 | 36 | 1017.3 |
| 20260903015158 | 30 | 130 | 3.2 | 12.9 | 0.00 | 0.00 | 0.00 | 36 | 1017.3 |
| 20260903014416 | 30 | 142 | 1.6 | 12.9 | 0.00 | 0.00 | 0.00 | 36 | 1017.3 |
| 20260903013916 | 30 | 139 | 0.0 | 12.9 | 0.00 | 0.00 | 0.00 | 35 | 1017.0 |
| 20260903013414 | 30 | 129 | 1.6 | 12.9 | 0.00 | 0.00 | 0.00 | 35 | 1017.0 |
| 20260903012914 | 30 | 149 | 0.0 | 9.7 | 0.00 | 0.00 | 0.00 | 35 | 1017.0 |
| 20260903012411 | 30 | 127 | 0.0 | 9.7 | 0.00 | 0.00 | 0.00 | 35 | 1017.0 |
| 20260903011851 | 30 | 138 | 0.0 | 9.7 | 0.00 | 0.00 | 0.00 | 35 | 1017.0 |
| 20260903011344 | 30 | 132 | 0.0 | 9.7 | 0.00 | 0.00 | 0.00 | 35 | 1017.0 |
| 20260903011055 | 30 | 131 | 0.0 | 9.7 | 0.00 | 0.00 | 0.00 | 35 | 1017.0 |
| 20260903010335 | 31 | 142 | 0.0 | 11.3 | 0.00 | 0.00 | 0.00 | 34 | 1017.0 |
| 20260903005818 | 31 | 149 | 8.0 | 12.9 | 0.00 | 0.00 | 0.00 | 34 | 1017.0 |
| 20260903005314 | 31 | 130 | 9.7 | 12.9 | 0.00 | 0.00 | 0.00 | 34 | 1017.0 |
| 20260903004815 | 31 | 128 | 9.7 | 16.1 | 0.00 | 0.00 | 0.00 | 33 | 1017.0 |
| 20260903004526 | 31 | 140 | 1.6 | 16.1 | 0.00 | 0.00 | 0.00 | 32 | 1017.0 |
| 20260903003802 | 32 | 133 | 0.0 | 20.9 | 0.00 | 0.00 | 0.00 | 32 | 1017.0 |
| 20260903003238 | 32 | 135 | 4.8 | 20.9 | 0.00 | 0.00 | 0.00 | 32 | 1017.0 |
| 20260903002734 | 32 | 130 | 11.3 | 16.1 | 0.00 | 0.00 | 0.00 | 31 | 1016.7 |
| 20260903002226 | 32 | 161 | 4.8 | 16.1 | 0.00 | 0.00 | 0.00 | 30 | 1017.0 |
| 20260903001719 | 32 | 113 | 3.2 | 14.5 | 0.00 | 0.00 | 0.00 | 30 | 1017.0 |
| 20260903001215 | 32 | 141 | 8.0 | 14.5 | 0.00 | 0.00 | 0.00 | 30 | 1017.0 |
| 20260903000715 | 32 | 139 | 3.2 | 11.3 | 0.00 | 0.00 | 0.00 | 31 | 1016.7 |
| 20260903000230 | 32 | 146 | 3.2 | 9.7 | 0.00 | 0.00 | 0.00 | 31 | 1017.0 |
| 20260903000212 | 32 | 158 | 4.8 | 11.3 | 0.00 | 0.00 | 0.00 | 31 | 1016.7 |
| 20260902235908 | 32 | 141 | 0.0 | 6.4 | 0.00 | 0.00 | 0.00 | 31 | 1017.0 |
| 20260902234655 | 32 | 158 | 0.0 | 17.7 | 0.00 | 0.00 | 0.00 | 32 | 1017.0 |
| 20260902234149 | 32 | 146 | 0.0 | 20.9 | 0.00 | 0.00 | 0.00 | 31 | 1016.7 |
| 20260902233645 | 32 | 138 | 3.2 | 20.9 | 0.00 | 0.00 | 0.00 | 32 | 1016.7 |
| 20260902233357 | 31 | 134 | 3.2 | 14.5 | 0.00 | 0.00 | 0.00 | 31 | 1017.0 |
| 20260902232636 | 31 | 153 | 1.6 | 20.9 | 0.00 | 0.00 | 0.00 | 31 | 1017.0 |
| 20260902232127 | 31 | 142 | 0.0 | 20.9 | 0.00 | 0.00 | 0.00 | 32 | 1017.0 |
| 20260902231623 | 31 | 186 | 0.0 | 20.9 | 0.00 | 0.00 | 0.00 | 35 | 1016.7 |
| 20260902231125 | 32 | 152 | 3.2 | 20.9 | 0.00 | 0.00 | 0.00 | 31 | 1017.3 |
| 20260902230840 | 32 | 137 | 3.2 | 20.9 | 0.00 | 0.00 | 0.00 | 31 | 1017.3 |
| 20260902230115 | 32 | 123 | 0.0 | 16.1 | 0.00 | 0.00 | 0.00 | 31 | 1017.3 |
| 20260902225606 | 32 | 138 | 0.0 | 16.1 | 0.00 | 0.00 | 0.00 | 31 | 1017.0 |
| 20260902225053 | 32 | 101 | 4.8 | 17.7 | 0.00 | 0.00 | 0.00 | 31 | 1017.0 |
| 20260902224535 | 32 | 132 | 8.0 | 20.9 | 0.00 | 0.00 | 0.00 | 31 | 1017.0 |
| 20260902224022 | 33 | 123 | 6.4 | 20.9 | 0.00 | 0.00 | 0.00 | 30 | 1017.0 |
| 20260902223515 | 33 | 114 | 9.7 | 22.5 | 0.00 | 0.00 | 0.00 | 29 | 1017.3 |
| 20260902223007 | 34 | 139 | 12.9 | 22.5 | 0.00 | 0.00 | 0.00 | 29 | 1017.3 |
| 20260902222457 | 34 | 120 | 4.8 | 24.1 | 0.00 | 0.00 | 0.00 | 28 | 1017.0 |
| 20260902221944 | 34 | 142 | 17.7 | 24.1 | 0.00 | 0.00 | 0.00 | 29 | 1017.3 |
| 20260902221435 | 33 | 123 | 12.9 | 20.9 | 0.00 | 0.00 | 0.00 | 30 | 1017.0 |
| 20260902220935 | 33 | 115 | 11.3 | 20.9 | 0.00 | 0.00 | 0.00 | 30 | 1017.3 |
| 20260902220416 | 33 | 139 | 0.0 | 17.7 | 0.00 | 0.00 | 0.00 | 31 | 1017.3 |
| 20260902215915 | 33 | 166 | 3.2 | 6.4 | 0.00 | 0.00 | 0.00 | 27 | 1017.3 |
| 20260902215407 | 33 | 195 | 0.0 | 11.3 | 0.00 | 0.00 | 0.00 | 27 | 1017.3 |
| 20260902214856 | 34 | 182 | 6.4 | 11.3 | 0.00 | 0.00 | 0.00 | 26 | 1017.3 |
| 20260902214344 | 35 | 206 | 0.0 | 14.5 | 0.00 | 0.00 | 0.00 | 26 | 1017.3 |
| 20260902213835 | 35 | 162 | 0.0 | 14.5 | 0.00 | 0.00 | 0.00 | 25 | 1017.0 |
| 20260902213335 | 35 | 133 | 0.0 | 16.1 | 0.00 | 0.00 | 0.00 | 25 | 1017.3 |
| 20260902212833 | 35 | 138 | 1.6 | 17.7 | 0.00 | 0.00 | 0.00 | 26 | 1017.7 |
| 20260902212803 | 35 | 137 | 0.0 | 17.7 | 0.00 | 0.00 | 0.00 | 25 | 1017.7 |
| 20260902211811 | 35 | 192 | 1.6 | 20.9 | 0.00 | 0.00 | 0.00 | 24 | 1017.3 |
| 20260902211459 | 35 | 171 | 0.0 | 6.4 | 0.00 | 0.00 | 0.00 | 26 | 1017.7 |
| 20260902211344 | 35 | 175 | 0.0 | 20.9 | 0.00 | 0.00 | 0.00 | 24 | 1017.3 |
| 20260902210501 | 33 | 140 | 0.0 | 9.7 | 0.00 | 0.00 | 0.00 | 27 | 1017.7 |
| 20260902205734 | 34 | 156 | 4.8 | 9.7 | 0.00 | 0.00 | 0.00 | 27 | 1018.0 |
| 20260902205232 | 35 | 203 | 3.2 | 14.5 | 0.00 | 0.00 | 0.00 | 25 | 1018.0 |
| 20260902204714 | 35 | 171 | 0.0 | 14.5 | 0.00 | 0.00 | 0.00 | 27 | 1018.0 |
| 20260902204432 | 35 | 137 | 0.0 | 16.1 | 0.00 | 0.00 | 0.00 | 27 | 1018.0 |
| 20260902203659 | 35 | 170 | 0.0 | 22.5 | 0.00 | 0.00 | 0.00 | 27 | 1018.3 |
| 20260902203148 | 35 | 97 | 1.6 | 22.5 | 0.00 | 0.00 | 0.00 | 27 | 1018.3 |
| 20260902202637 | 36 | 182 | 0.0 | 12.9 | 0.00 | 0.00 | 0.00 | 25 | 1018.3 |
| 20260902202135 | 36 | 190 | 0.0 | 12.9 | 0.00 | 0.00 | 0.00 | 26 | 1018.3 |
| 20260902201635 | 35 | 179 | 0.0 | 4.8 | 0.00 | 0.00 | 0.00 | 27 | 1018.3 |
| 20260902201114 | 34 | 202 | 0.0 | 0.0 | 0.00 | 0.00 | 0.00 | 28 | 1018.3 |
| 20260902200613 | 34 | 147 | 0.0 | 0.0 | 0.00 | 0.00 | 0.00 | 29 | 1018.7 |
| 20260902200334 | 33 | 159 | 0.0 | 4.8 | 0.00 | 0.00 | 0.00 | 30 | 1018.7 |
| 20260902195614 | 32 | 135 | 0.0 | 9.7 | 0.00 | 0.00 | 0.00 | 31 | 1018.3 |
| 20260902195333 | 33 | 186 | 4.8 | 9.7 | 0.00 | 0.00 | 0.00 | 30 | 1018.7 |
| 20260902194825 | 33 | 177 | 0.0 | 4.8 | 0.00 | 0.00 | 0.00 | 30 | 1018.7 |
| 20260902194052 | 33 | 189 | 0.0 | 16.1 | 0.00 | 0.00 | 0.00 | 30 | 1019.0 |
| 20260902193541 | 34 | 145 | 0.0 | 16.1 | 0.00 | 0.00 | 0.00 | 29 | 1019.0 |
| 20260902193031 | 35 | 188 | 0.0 | 9.7 | 0.00 | 0.00 | 0.00 | 28 | 1019.0 |
| 20260902192515 | 35 | 199 | 0.0 | 12.9 | 0.00 | 0.00 | 0.00 | 28 | 1019.0 |
| 20260902192009 | 35 | 125 | 6.4 | 14.5 | 0.00 | 0.00 | 0.00 | 27 | 1019.4 |
| 20260902191458 | 35 | 323 | 0.0 | 14.5 | 0.00 | 0.00 | 0.00 | 28 | 1019.0 |
| 20260902190947 | 36 | 195 | 0.0 | 12.9 | 0.00 | 0.00 | 0.00 | 27 | 1019.0 |
| 20260902190436 | 34 | 151 | 0.0 | 4.8 | 0.00 | 0.00 | 0.00 | 28 | 1019.4 |
| 20260902185915 | 34 | 107 | 0.0 | 9.7 | 0.00 | 0.00 | 0.00 | 30 | 1019.4 |
| 20260902185415 | 34 | 188 | 0.0 | 9.7 | 0.00 | 0.00 | 0.00 | 28 | 1019.4 |
| 20260902185126 | 35 | 191 | 0.0 | 6.4 | 0.00 | 0.00 | 0.00 | 30 | 1019.4 |
| 20260902184831 | 35 | 179 | 0.0 | 6.4 | 0.00 | 0.00 | 0.00 | 29 | 1019.7 |
| 20260902184103 | 34 | 175 | 0.0 | 11.3 | 0.00 | 0.00 | 0.00 | 29 | 1019.7 |
| 20260902183333 | 33 | 140 | 0.0 | 20.9 | 0.00 | 0.00 | 0.00 | 32 | 1020.0 |
| 20260902182834 | 33 | 134 | 11.3 | 20.9 | 0.00 | 0.00 | 0.00 | 32 | 1019.7 |
| 20260902182323 | 34 | 310 | 0.0 | 3.2 | 0.00 | 0.00 | 0.00 | 31 | 1020.0 |
| 20260902181812 | 34 | 184 | 0.0 | 1.6 | 0.00 | 0.00 | 0.00 | 30 | 1020.4 |
| 20260902181305 | 34 | 231 | 0.0 | 1.6 | 0.00 | 0.00 | 0.00 | 30 | 1020.4 |
| 20260902181028 | 33 | 235 | 0.0 | 9.7 | 0.00 | 0.00 | 0.00 | 32 | 1020.4 |
| 20260902180516 | 33 | 185 | 0.0 | 9.7 | 0.00 | 0.00 | 0.00 | 32 | 1020.4 |
| 20260902175735 | 33 | 156 | 0.0 | 9.7 | 0.00 | 0.00 | 0.00 | 32 | 1020.7 |
| 20260902175223 | 33 | 186 | 0.0 | 6.4 | 0.00 | 0.00 | 0.00 | 30 | 1020.7 |
| 20260902174715 | 32 | 140 | 0.0 | 16.1 | 0.00 | 0.00 | 0.00 | 33 | 1020.7 |
| 20260902174213 | 32 | 145 | 6.4 | 16.1 | 0.00 | 0.00 | 0.00 | 34 | 1020.7 |
| 20260902173934 | 32 | 182 | 1.6 | 14.5 | 0.00 | 0.00 | 0.00 | 34 | 1020.7 |
| 20260902173203 | 32 | 172 | 0.0 | 12.9 | 0.00 | 0.00 | 0.00 | 34 | 1020.7 |
| 20260902172642 | 32 | 173 | 6.4 | 12.9 | 0.00 | 0.00 | 0.00 | 34 | 1021.1 |
| 20260902172136 | 32 | 183 | 0.0 | 9.7 | 0.00 | 0.00 | 0.00 | 34 | 1020.7 |
| 20260902171617 | 32 | 145 | 0.0 | 12.9 | 0.00 | 0.00 | 0.00 | 35 | 1021.1 |
| 20260902171340 | 31 | 197 | 0.0 | 12.9 | 0.00 | 0.00 | 0.00 | 35 | 1020.7 |
| 20260902170603 | 32 | 177 | 0.0 | 12.9 | 0.00 | 0.00 | 0.00 | 35 | 1021.1 |
| 20260902170055 | 31 | 186 | 0.0 | 9.7 | 0.00 | 0.00 | 0.00 | 37 | 1020.7 |
| 20260902165535 | 31 | 166 | 0.0 | 4.8 | 0.00 | 0.00 | 0.00 | 38 | 1020.7 |
| 20260902165019 | 30 | 178 | 0.0 | 17.7 | 0.00 | 0.00 | 0.00 | 40 | 1021.1 |
| 20260902164516 | 30 | 182 | 0.0 | 17.7 | 0.00 | 0.00 | 0.00 | 40 | 1021.1 |
| 20260902163956 | 31 | 212 | 0.0 | 6.4 | 0.00 | 0.00 | 0.00 | 39 | 1021.4 |
| 20260902163451 | 30 | 212 | 0.0 | 4.8 | 0.00 | 0.00 | 0.00 | 40 | 1021.1 |
| 20260902162945 | 30 | 123 | 0.0 | 4.8 | 0.00 | 0.00 | 0.00 | 41 | 1021.4 |
| 20260902162435 | 30 | 186 | 0.0 | 12.9 | 0.00 | 0.00 | 0.00 | 41 | 1021.1 |
| 20260902161929 | 30 | 188 | 0.0 | 12.9 | 0.00 | 0.00 | 0.00 | 42 | 1021.1 |
| 20260902161427 | 29 | 180 | 0.0 | 12.9 | 0.00 | 0.00 | 0.00 | 42 | 1021.1 |
| 20260902160920 | 30 | 188 | 6.4 | 11.3 | 0.00 | 0.00 | 0.00 | 43 | 1021.1 |
| 20260902160421 | 29 | 183 | 0.0 | 16.1 | 0.00 | 0.00 | 0.00 | 43 | 1021.1 |
| 20260902155916 | 28 | 191 | 0.0 | 16.1 | 0.00 | 0.00 | 0.00 | 44 | 1021.1 |
| 20260902155358 | 28 | 185 | 0.0 | 14.5 | 0.00 | 0.00 | 0.00 | 45 | 1021.1 |
| 20260902154856 | 28 | 179 | 0.0 | 14.5 | 0.00 | 0.00 | 0.00 | 45 | 1021.1 |
| 20260902154342 | 28 | 188 | 0.0 | 11.3 | 0.00 | 0.00 | 0.00 | 46 | 1021.1 |
| 20260902153839 | 27 | 126 | 1.6 | 20.9 | 0.00 | 0.00 | 0.00 | 46 | 1021.1 |
| 20260902153335 | 27 | 209 | 0.0 | 16.1 | 0.00 | 0.00 | 0.00 | 47 | 1021.1 |
| 20260902152836 | 27 | 115 | 6.4 | 12.9 | 0.00 | 0.00 | 0.00 | 48 | 1021.1 |
| 20260902152521 | 27 | 189 | 1.6 | 14.5 | 0.00 | 0.00 | 0.00 | 49 | 1021.1 |
| 20260902152410 | 27 | 180 | 0.0 | 12.9 | 0.00 | 0.00 | 0.00 | 48 | 1021.4 |
| 20260902151322 | 27 | 183 | 3.2 | 14.5 | 0.00 | 0.00 | 0.00 | 49 | 1021.1 |
| 20260902150820 | 27 | 177 | 6.4 | 16.1 | 0.00 | 0.00 | 0.00 | 49 | 1021.4 |
| 20260902150315 | 26 | 162 | 1.6 | 17.7 | 0.00 | 0.00 | 0.00 | 50 | 1021.1 |
| 20260902150028 | 26 | 188 | 0.0 | 17.7 | 0.00 | 0.00 | 0.00 | 52 | 1021.1 |
| 20260902145252 | 26 | 196 | 0.0 | 14.5 | 0.00 | 0.00 | 0.00 | 52 | 1020.7 |
| 20260902144742 | 26 | 215 | 0.0 | 12.9 | 0.00 | 0.00 | 0.00 | 52 | 1021.1 |
| 20260902144235 | 25 | 187 | 4.8 | 12.9 | 0.00 | 0.00 | 0.00 | 53 | 1021.1 |
| 20260902143939 | 26 | 170 | 0.0 | 9.7 | 0.00 | 0.00 | 0.00 | 52 | 1021.1 |
| 20260902143430 | 25 | 178 | 3.2 | 9.7 | 0.00 | 0.00 | 0.00 | 53 | 1021.1 |
| 20260902142710 | 25 | 141 | 0.0 | 9.7 | 0.00 | 0.00 | 0.00 | 53 | 1021.1 |
| 20260902142151 | 25 | 172 | 3.2 | 9.7 | 0.00 | 0.00 | 0.00 | 54 | 1021.1 |
| 20260902141646 | 25 | 205 | 0.0 | 9.7 | 0.00 | 0.00 | 0.00 | 55 | 1020.7 |
| 20260902141141 | 25 | 179 | 0.0 | 3.2 | 0.00 | 0.00 | 0.00 | 55 | 1021.1 |
| 20260902140636 | 24 | 129 | 0.0 | 0.0 | 0.00 | 0.00 | 0.00 | 55 | 1021.4 |
| 20260902140134 | 23 | 178 | 0.0 | 0.0 | 0.00 | 0.00 | 0.00 | 57 | 1021.1 |
| 20260902135632 | 23 | 176 | 0.0 | 0.0 | 0.00 | 0.00 | 0.00 | 58 | 1021.1 |
| 20260902135129 | 23 | 176 | 0.0 | 0.0 | 0.00 | 0.00 | 0.00 | 60 | 1021.1 |
| 20260902134620 | 23 | 176 | 0.0 | 0.0 | 0.00 | 0.00 | 0.00 | 60 | 1021.1 |
| 20260902134107 | 23 | 166 | 0.0 | 0.0 | 0.00 | 0.00 | 0.00 | 59 | 1021.1 |
| 20260902133608 | 23 | 161 | 0.0 | 0.0 | 0.00 | 0.00 | 0.00 | 59 | 1021.1 |
| 20260902133104 | 23 | 159 | 0.0 | 0.0 | 0.00 | 0.00 | 0.00 | 61 | 1021.1 |
| 20260902132604 | 22 | 159 | 0.0 | 0.0 | 0.00 | 0.00 | 0.00 | 62 | 1021.1 |
| 20260902132103 | 22 | 159 | 0.0 | 0.0 | 0.00 | 0.00 | 0.00 | 63 | 1020.7 |
| 20260902131559 | 22 | 158 | 0.0 | 0.0 | 0.00 | 0.00 | 0.00 | 64 | 1021.1 |
| 20260902131055 | 22 | 158 | 0.0 | 0.0 | 0.00 | 0.00 | 0.00 | 65 | 1020.7 |
| 20260902130554 | 21 | 156 | 0.0 | 0.0 | 0.00 | 0.00 | 0.00 | 66 | 1020.7 |
| 20260902130045 | 21 | 156 | 0.0 | 0.0 | 0.00 | 0.00 | 0.00 | 67 | 1020.4 |
| 20260902125545 | 21 | 156 | 0.0 | 0.0 | 0.00 | 0.00 | 0.00 | 68 | 1020.7 |
| 20260902125041 | 21 | 157 | 0.0 | 0.0 | 0.00 | 0.00 | 0.00 | 68 | 1020.4 |
| 20260902124533 | 21 | 157 | 0.0 | 0.0 | 0.00 | 0.00 | 0.00 | 68 | 1020.4 |
| 20260902124028 | 21 | 157 | 0.0 | 0.0 | 0.00 | 0.00 | 0.00 | 68 | 1020.4 |
| 20260902123528 | 21 | 156 | 0.0 | 0.0 | 0.00 | 0.00 | 0.00 | 68 | 1020.4 |
| 20260902123014 | 21 | 156 | 0.0 | 0.0 | 0.00 | 0.00 | 0.00 | 69 | 1020.0 |
| 20260902122808 | 20 | 155 | 0.0 | 0.0 | 0.00 | 0.00 | 0.00 | 69 | 1020.0 |
| 20260902122705 | 20 | 155 | 0.0 | 0.0 | 0.00 | 0.00 | 0.00 | 70 | 1020.0 |
| 20260902122050 | 20 | 155 | 0.0 | 0.0 | 0.00 | 0.00 | 0.00 | 69 | 1020.0 |
| 20260902120959 | 20 | 155 | 0.0 | 0.0 | 0.00 | 0.00 | 0.00 | 70 | 1020.0 |
| 20260902120456 | 20 | 155 | 0.0 | 0.0 | 0.00 | 0.00 | 0.00 | 71 | 1020.0 |
| 20260902115947 | 20 | 155 | 0.0 | 0.0 | 0.00 | 0.00 | 0.00 | 70 | 1019.7 |
| 20260902115432 | 20 | 155 | 0.0 | 0.0 | 0.00 | 0.00 | 0.00 | 69 | 1019.7 |
| 20260902114935 | 20 | 155 | 0.0 | 0.0 | 0.00 | 0.00 | 0.00 | 68 | 1019.7 |
| 20260902114419 | 21 | 155 | 0.0 | 0.0 | 0.00 | 0.00 | 0.00 | 68 | 1019.7 |
| 20260902113914 | 21 | 155 | 0.0 | 0.0 | 0.00 | 0.00 | 0.00 | 68 | 1020.0 |
| 20260902113413 | 21 | 155 | 0.0 | 0.0 | 0.00 | 0.00 | 0.00 | 67 | 1019.7 |
| 20260902112907 | 21 | 155 | 0.0 | 0.0 | 0.00 | 0.00 | 0.00 | 67 | 1019.7 |
| 20260902112617 | 21 | 155 | 0.0 | 0.0 | 0.00 | 0.00 | 0.00 | 67 | 1020.0 |
| 20260902112119 | 21 | 155 | 0.0 | 0.0 | 0.00 | 0.00 | 0.00 | 67 | 1019.7 |
| 20260902111824 | 21 | 155 | 0.0 | 0.0 | 0.00 | 0.00 | 0.00 | 66 | 1019.7 |
| 20260902111100 | 21 | 155 | 0.0 | 0.0 | 0.00 | 0.00 | 0.00 | 65 | 1020.0 |
| 20260902110320 | 21 | 155 | 0.0 | 0.0 | 0.00 | 0.00 | 0.00 | 65 | 1020.0 |
| 20260902105815 | 21 | 155 | 0.0 | 0.0 | 0.00 | 0.00 | 0.00 | 65 | 1020.0 |
| 20260902105311 | 21 | 160 | 0.0 | 0.0 | 0.00 | 0.00 | 0.00 | 65 | 1019.7 |
| 20260902105016 | 21 | 160 | 0.0 | 0.0 | 0.00 | 0.00 | 0.00 | 65 | 1020.0 |
| 20260902104513 | 21 | 160 | 0.0 | 0.0 | 0.00 | 0.00 | 0.00 | 64 | 1020.0 |
| 20260902104237 | 21 | 141 | 0.0 | 0.0 | 0.00 | 0.00 | 0.00 | 64 | 1020.0 |
| 20260902103238 | 21 | 140 | 0.0 | 0.0 | 0.00 | 0.00 | 0.00 | 63 | 1020.0 |
| 20260902102727 | 22 | 140 | 0.0 | 0.0 | 0.00 | 0.00 | 0.00 | 62 | 1020.0 |
| 20260902102217 | 22 | 140 | 0.0 | 0.0 | 0.00 | 0.00 | 0.00 | 62 | 1020.0 |
| 20260902101708 | 22 | 143 | 0.0 | 0.0 | 0.00 | 0.00 | 0.00 | 62 | 1019.7 |
| 20260902101208 | 22 | 131 | 0.0 | 0.0 | 0.00 | 0.00 | 0.00 | 61 | 1019.7 |
| 20260902100926 | 22 | 149 | 0.0 | 0.0 | 0.00 | 0.00 | 0.00 | 60 | 1020.0 |
| 20260902100157 | 22 | 146 | 0.0 | 0.0 | 0.00 | 0.00 | 0.00 | 60 | 1020.0 |
| 20260902095653 | 22 | 147 | 0.0 | 0.0 | 0.00 | 0.00 | 0.00 | 60 | 1020.0 |
| 20260902095408 | 22 | 148 | 0.0 | 0.0 | 0.00 | 0.00 | 0.00 | 59 | 1019.7 |
| 20260902094642 | 22 | 148 | 0.0 | 0.0 | 0.00 | 0.00 | 0.00 | 59 | 1020.0 |
| 20260902094140 | 22 | 149 | 0.0 | 0.0 | 0.00 | 0.00 | 0.00 | 58 | 1020.0 |
| 20260902093633 | 22 | 154 | 0.0 | 0.0 | 0.00 | 0.00 | 0.00 | 58 | 1020.0 |
| 20260902093339 | 22 | 172 | 0.0 | 0.0 | 0.00 | 0.00 | 0.00 | 57 | 1020.0 |
| 20260902093225 | 22 | 170 | 0.0 | 0.0 | 0.00 | 0.00 | 0.00 | 57 | 1020.0 |
| 20260902092125 | 22 | 150 | 0.0 | 0.0 | 0.00 | 0.00 | 0.00 | 56 | 1020.0 |
| 20260902091839 | 22 | 143 | 0.0 | 0.0 | 0.00 | 0.00 | 0.00 | 56 | 1019.7 |
| 20260902091111 | 22 | 150 | 0.0 | 0.0 | 0.00 | 0.00 | 0.00 | 56 | 1020.0 |
| 20260902090601 | 22 | 150 | 0.0 | 0.0 | 0.00 | 0.00 | 0.00 | 55 | 1020.0 |
| 20260902090051 | 22 | 149 | 0.0 | 0.0 | 0.00 | 0.00 | 0.00 | 55 | 1020.4 |
| 20260902085542 | 22 | 149 | 0.0 | 0.0 | 0.00 | 0.00 | 0.00 | 54 | 1020.0 |
| 20260902085042 | 22 | 149 | 0.0 | 0.0 | 0.00 | 0.00 | 0.00 | 54 | 1020.0 |
| 20260902084529 | 22 | 149 | 0.0 | 0.0 | 0.00 | 0.00 | 0.00 | 53 | 1019.7 |
| 20260902084027 | 22 | 149 | 0.0 | 0.0 | 0.00 | 0.00 | 0.00 | 53 | 1020.0 |
| 20260902083516 | 22 | 149 | 0.0 | 0.0 | 0.00 | 0.00 | 0.00 | 53 | 1020.0 |
| 20260902083016 | 23 | 149 | 0.0 | 0.0 | 0.00 | 0.00 | 0.00 | 52 | 1020.0 |
| 20260902082515 | 23 | 144 | 0.0 | 0.0 | 0.00 | 0.00 | 0.00 | 52 | 1020.0 |
| 20260902082014 | 23 | 142 | 0.0 | 0.0 | 0.00 | 0.00 | 0.00 | 51 | 1020.0 |
| 20260902081741 | 23 | 150 | 0.0 | 0.0 | 0.00 | 0.00 | 0.00 | 51 | 1020.0 |
| 20260902081011 | 23 | 159 | 0.0 | 0.0 | 0.00 | 0.00 | 0.00 | 51 | 1020.0 |
| 20260902080507 | 23 | 161 | 0.0 | 0.0 | 0.00 | 0.00 | 0.00 | 52 | 1020.0 |
| 20260902080004 | 23 | 154 | 0.0 | 3.2 | 0.00 | 0.00 | 0.00 | 51 | 1020.4 |
| 20260902075454 | 23 | 150 | 0.0 | 3.2 | 0.00 | 0.00 | 0.00 | 50 | 1020.4 |
| 20260902074945 | 23 | 130 | 0.0 | 0.0 | 0.00 | 0.00 | 0.00 | 50 | 1020.0 |
| 20260902074443 | 23 | 137 | 0.0 | 4.8 | 0.00 | 0.00 | 0.00 | 50 | 1020.4 |
| 20260902073935 | 23 | 142 | 0.0 | 4.8 | 0.00 | 0.00 | 0.00 | 50 | 1020.4 |
| 20260902073424 | 23 | 142 | 0.0 | 4.8 | 0.00 | 0.00 | 0.00 | 50 | 1020.4 |
| 20260902073142 | 23 | 153 | 0.0 | 4.8 | 0.00 | 0.00 | 0.00 | 49 | 1020.4 |
| 20260902072401 | 24 | 142 | 0.0 | 1.6 | 0.00 | 0.00 | 0.00 | 49 | 1020.7 |
| 20260902072115 | 24 | 131 | 0.0 | 9.7 | 0.00 | 0.00 | 0.00 | 48 | 1020.7 |
| 20260902071350 | 24 | 158 | 0.0 | 9.7 | 0.00 | 0.00 | 0.00 | 48 | 1020.4 |
| 20260902070846 | 24 | 142 | 1.6 | 4.8 | 0.00 | 0.00 | 0.00 | 47 | 1020.4 |
| 20260902070333 | 25 | 138 | 0.0 | 6.4 | 0.00 | 0.00 | 0.00 | 47 | 1020.4 |
| 20260902065813 | 25 | 137 | 0.0 | 6.4 | 0.00 | 0.00 | 0.00 | 46 | 1020.7 |
| 20260902065312 | 25 | 138 | 0.0 | 6.4 | 0.00 | 0.00 | 0.00 | 45 | 1020.4 |
| 20260902064811 | 25 | 146 | 0.0 | 1.6 | 0.00 | 0.00 | 0.00 | 45 | 1020.4 |
| 20260902064300 | 25 | 139 | 0.0 | 6.4 | 0.00 | 0.00 | 0.00 | 45 | 1020.7 |
| 20260902063758 | 25 | 129 | 0.0 | 6.4 | 0.00 | 0.00 | 0.00 | 45 | 1020.7 |
| 20260902063259 | 25 | 144 | 0.0 | 1.6 | 0.00 | 0.00 | 0.00 | 46 | 1020.4 |
| 20260902062749 | 25 | 17 | 0.0 | 0.0 | 0.00 | 0.00 | 0.00 | 45 | 1020.4 |
| 20260902062249 | 25 | 343 | 0.0 | 0.0 | 0.00 | 0.00 | 0.00 | 45 | 1020.4 |
| 20260902062004 | 25 | 337 | 0.0 | 0.0 | 0.00 | 0.00 | 0.00 | 46 | 1020.7 |
| 20260902061236 | 25 | 337 | 0.0 | 0.0 | 0.00 | 0.00 | 0.00 | 46 | 1020.4 |
| 20260902060715 | 25 | 336 | 0.0 | 0.0 | 0.00 | 0.00 | 0.00 | 48 | 1020.7 |
| 20260902060434 | 24 | 336 | 0.0 | 0.0 | 0.00 | 0.00 | 0.00 | 50 | 1021.1 |
| 20260902055928 | 24 | 336 | 0.0 | 3.2 | 0.00 | 0.00 | 0.00 | 50 | 1020.7 |
| 20260902055155 | 25 | 336 | 0.0 | 3.2 | 0.00 | 0.00 | 0.00 | 50 | 1020.4 |
| 20260902054637 | 25 | 336 | 0.0 | 0.0 | 0.00 | 0.00 | 0.00 | 50 | 1020.4 |
| 20260902054117 | 24 | 336 | 0.0 | 0.0 | 0.00 | 0.00 | 0.00 | 50 | 1020.4 |
| 20260902053610 | 24 | 336 | 0.0 | 0.0 | 0.00 | 0.00 | 0.00 | 50 | 1020.4 |
| 20260902053332 | 25 | 336 | 0.0 | 0.0 | 0.00 | 0.00 | 0.00 | 50 | 1020.4 |
| 20260902052830 | 25 | 336 | 0.0 | 0.0 | 0.00 | 0.00 | 0.00 | 50 | 1020.4 |
| 20260902052105 | 25 | 334 | 0.0 | 0.0 | 0.00 | 0.00 | 0.00 | 50 | 1020.4 |
| 20260902051555 | 25 | 334 | 0.0 | 0.0 | 0.00 | 0.00 | 0.00 | 49 | 1020.4 |
| 20260902051045 | 25 | 334 | 0.0 | 0.0 | 0.00 | 0.00 | 0.00 | 49 | 1020.4 |
| 20260902050544 | 25 | 334 | 0.0 | 0.0 | 0.00 | 0.00 | 0.00 | 49 | 1020.4 |
| 20260902050036 | 25 | 334 | 0.0 | 0.0 | 0.00 | 0.00 | 0.00 | 49 | 1020.4 |
| 20260902045535 | 25 | 334 | 0.0 | 1.6 | 0.00 | 0.00 | 0.00 | 49 | 1020.7 |
| 20260902045017 | 25 | 334 | 0.0 | 1.6 | 0.00 | 0.00 | 0.00 | 49 | 1020.7 |
| 20260902044502 | 25 | 331 | 0.0 | 0.0 | 0.00 | 0.00 | 0.00 | 49 | 1020.7 |
| 20260902043955 | 25 | 329 | 0.0 | 0.0 | 0.00 | 0.00 | 0.00 | 50 | 1020.7 |
| 20260902043446 | 25 | 325 | 0.0 | 0.0 | 0.00 | 0.00 | 0.00 | 50 | 1020.7 |
| 20260902042944 | 25 | 324 | 0.0 | 0.0 | 0.00 | 0.00 | 0.00 | 50 | 1020.7 |
| 20260902042431 | 25 | 324 | 0.0 | 0.0 | 0.00 | 0.00 | 0.00 | 51 | 1020.4 |
| 20260902041932 | 25 | 324 | 0.0 | 0.0 | 0.00 | 0.00 | 0.00 | 52 | 1020.4 |
| 20260902041418 | 25 | 324 | 0.0 | 0.0 | 0.00 | 0.00 | 0.00 | 52 | 1020.4 |
| 20260902040908 | 25 | 324 | 0.0 | 0.0 | 0.00 | 0.00 | 0.00 | 52 | 1020.4 |
| 20260902040403 | 25 | 324 | 0.0 | 0.0 | 0.00 | 0.00 | 0.00 | 52 | 1020.7 |